Meath Environmental Platform

Observations for Trim Market St

Time AQI Temp °C Hum % Pres Pa CO μg/m³ H₂S μg/m³ NO μg/m³ NO₂ μg/m³ O₃ μg/m³ SO₂ μg/m³ PM1 μg/m³ PM2.5 μg/m³ PM10 μg/m³
Monday 13 July 2026
05:04 1 17.2 78 17,726 0.07 0 0 2.5 19.7 0 0.71 2.22 5.79
04:58 1 17.2 77 18,876 0.08 0 0 3.72 22.2 0 1.43 2.71 5.2
04:56 1 17.2 77 19,304 0.07 0 0 3.72 18.88 0 0.71 2.71 5.2
04:55 1 17.3 77 19,584 0.08 0 0 3.4 19.1 0 2.14 2.71 5.78
04:51 1 17.2 77 21,061 0.08 0 0 3.44 19.73 0 1.43 5.57 8.7
04:44 1 17.3 77 23,663 0.07 0 0 3.75 19.61 0 1.43 2.25 5.77
04:39 1 17.3 77 25,502 0.06 0 0 3.36 19.09 0 0.71 1.78 5.19
04:36 1 17.4 77 26,383 0.06 0 0 3.75 22.13 0 1.43 2.74 5.18
04:33 1 17.4 77 27,212 0.06 0 0 4.56 18.51 0 1.43 3.22 5.77
04:31 1 17.4 77 27,668 0.06 0 0 2.86 23.56 0 1.43 2.74 5.77
04:28 1 17.4 76 27,970 0.06 0 0 3.67 19.19 0 0.71 2.75 5.18
04:27 1 17.4 76 28,180 0.05 0 0 3.07 18.91 0 2.14 4.18 6.94
04:26 1 17.4 76 28,309 0.06 0 0 3.38 22.6 0 2.85 4.18 6.94
04:25 1 17.4 76 28,468 0.05 0 0 3.38 20.67 0 2.14 3.23 6.35
04:24 1 17.4 76 28,692 0.06 0 0 3.29 21.89 0 0.71 2.28 5.76
04:23 1 17.4 76 28,884 0.06 0 0 4.49 20.61 0 2.14 3.71 6.94
04:22 1 17.4 76 29,180 0.05 0 0 2.89 20.39 0 1.43 3.71 6.35
04:17 1 17.5 76 30,622 0.05 0 0 3.69 20.12 0 0.71 3.24 5.76
04:16 1 17.5 76 30,969 0.05 0 0 2.69 23.71 0 1.43 3.24 5.76
04:14 1 17.5 76 31,345 0.04 0 0 3.3 21.63 0 0.71 3.73 6.94